Погода в Марковцах

Россия / Кировская область     58°14′29″N   50°27′14″E
темп.,
°C
ветер,
м/с
пор.,
м/с
влажн.,
%
обл.,
%
осадки,
мм/ч
давл.,
гПа
погр.,
м
10 августа, ср
ср1000:00+16зюз3595100 1.6 1020188
03:00+14ссв119356 1.8 101911
06:00+17зсз2288100 0.0 1019117
09:00+20сз2273100 0.0 1018376
12:00+21зсз236996 0.0 1018659
15:00+22зсз456957 0.4 1018984
18:00+18сз587857 0.1 1018785
21:00+13сз598392 0.1 1019413
11 августа, чт
чт1100:00+13сз5107620 0.0 1020448
03:00+11зсз5109041 0.0 1020507
06:00+11зсз6108863 0.0 1021535
09:00+14сз697977 0.0 1022876
12:00+18сз685847 0.1 10221495
15:00+19зсз5759100 0.1 10221032
18:00+17з4768100 0.0 1022206
21:00+16з3464100 0.0 102280
12 августа, пт
пт1200:00+15з356483 0.0 1022108
03:00+13зюз4975100 0.0 1022171
06:00+14з41080100 0.0 1022295
09:00+19з596295 0.0 1021590
12:00+22з795050 0.0 10201401
15:00+23з69515 0.0 10191783
18:00+20з510615 0.0 1018348
21:00+16зюз412735 0.0 1018211
13 августа, сб
сб1300:00+15з512782 0.0 1018231
03:00+16зсз4107710 0.0 1019279
06:00+16зсз49865 0.0 1020282
09:00+19ссз56585 0.0 1021781
12:00+21ссз57485 0.0 10211776
15:00+21ссз574319 0.0 10221782
18:00+18ссз35634 0.0 1022100
21:00+14ссз22680 0.0 102311
14 августа, вс
вс1400:00+12с22750 0.0 102412
03:00+11с11780 0.0 102510
06:00+13ссв12715 0.0 102569
09:00+18ссз12535 0.0 1025498
12:00+21сз234439 0.0 10241459
15:00+22ссз2342100 0.0 10231456
18:00+20ссв116048 0.0 102311
21:00+15ю226443 0.0 102314